User: anonymous   Login
Location: Newark
(37.8333°N, 119.5000°W)
Time: 11:53:52
(UTC+00:00)
Language:

Vanguard 2 - Orbit

View from above orbital plane
View from above orbital plane
View from above satellite
View from above satellite

Ground track
Ground track

The orbit data is extracted from the following two-line orbital elements,

1    11U 59001A   19232.87154587 -.00000071 +00000-0 -42748-4 0  9998
2    11 032.8704 107.6148 1467598 348.9843 008.1646 11.85609945239179
Epoch (UTC): 20 August 2019 20:55:01
Eccentricity: 0.1467598
inclination: 32.8704°
perigee height: 553 km
apogee height: 2938 km
right ascension of ascending node: 107.6148°
argument of perigee: 348.9843°
revolutions per day: 11.85609945
mean anomaly at epoch: 8.1646°
orbit number at epoch: 23917

The dashed part of the orbit path shows where the satellite is in the earth's shadow,  

DLR